Wind_Speed
10 7 7 7 6 7 6 6 9 10 10 9 8 7 7 7 7 7 7 7 7 6 6 6 6 5 5 4 2 3 4 6 6 10 12 10 7 3 1 1 3 3 3
12 10 9 9 7 6 7 8 8 9 9 10 11 10 9 9 9 8 8 8 9 9 9 8 10 7 7 5 6 3 2 3 4 7 15 11 9 6 3 0 2 2 1
16 11 9 9 9 7 6 6 9 8 9 9 10 9 9 9 9 10 10 11 12 10 10 11 11 10 10 8 5 4 3 5 3 5 12 10 8 5 2 1 2 2 2
15 10 11 10 9 7 6 6 6 8 8 8 9 9 9 9 10 10 11 12 12 12 12 12 13 12 13 14 11 10 8 7 5 6 8 9 4 3 1 1 2 2 3
16 14 13 12 10 8 7 6 6 7 7 8 8 8 8 7 7 9 10 10 11 12 12 13 14 15 15 13 11 13 12 11 10 8 7 5 6 4 3 3 3 3 3
18 13 12 13 11 9 8 7 8 8 7 8 7 7 7 5 7 8 9 9 10 11 12 13 13 13 13 13 13 13 12 12 10 8 8 8 7 5 4 4 3 3 4
18 13 12 12 12 11 10 9 10 9 8 8 7 7 6 5 6 7 7 8 9 10 10 11 11 11 12 12 12 11 11 10 10 9 9 8 5 4 4 4 3 3 3
15 14 11 13 10 12 10 11 13 11 8 8 8 8 6 5 6 7 7 7 7 8 8 9 9 10 10 10 10 10 11 10 12 10 10 9 7 5 4 3 3 4 4
14 14 15 11 10 11 10 10 12 12 10 8 7 8 7 7 5 5 7 6 5 5 6 6 6 6 7 7 8 8 8 9 9 8 8 8 8 7 5 3 4 6 5
18 17 14 12 10 11 11 12 13 14 11 8 7 8 8 8 6 5 7 5 5 5 5 5 4 5 6 5 6 5 5 5 4 5 6 7 9 9 8 5 4 4 5
15 19 16 17 18 14 9 10 13 16 13 11 10 8 7 7 6 6 6 5 4 5 4 3 3 5 5 7 6 4 3 2 2 3 3 4 5 7 6 7 6 6 2
21 20 16 15 15 17 13 10 15 19 14 9 11 9 8 6 5 6 6 6 5 4 3 3 4 6 6 6 7 6 5 5 1 0 1 3 4 4 5 5 6 6 4
19 17 15 15 15 14 14 16 18 19 16 13 14 10 7 6 5 5 5 4 5 5 4 4 7 8 8 6 6 7 9 4 2 2 1 2 4 5 6 7 7 10 11
12 14 14 14 12 13 12 15 18 20 16 12 13 10 8 7 6 6 7 7 7 7 5 8 9 7 7 1 5 6 3 3 3 2 2 4 5 6 5 6 6 7 7
12 12 12 11 10 12 14 16 18 19 16 14 12 11 8 8 8 8 8 7 7 7 9 11 7 4 1 0 1 2 3 4 3 4 4 5 5 5 6 7 7 7 7
9 8 8 10 12 13 15 17 16 14 15 12 12 11 11 9 7 9 9 8 10 10 9 6 5 4 3 1 2 2 3 4 4 5 5 5 5 5 7 7 8 7 7
11 10 10 11 13 15 16 16 18 18 13 13 11 10 9 7 7 10 9 10 11 13 7 7 7 5 4 3 2 3 2 1 5 4 6 7 7 6 8 8 7 7 8
11 12 11 14 13 15 14 13 12 11 11 12 12 10 10 9 9 9 9 10 11 11 8 9 8 7 5 4 2 1 0 2 3 4 5 6 6 7 7 8 8 8 10
8 10 11 13 12 11 12 11 10 11 10 10 10 10 10 10 9 10 11 11 8 8 9 9 8 7 6 4 3 2 1 1 2 4 5 6 7 8 9 9 10 11 11
10 14 13 12 13 12 12 12 12 13 12 12 10 10 11 11 9 9 10 8 9 9 9 9 8 8 7 6 4 3 3 5 5 7 7 9 9 10 12 13 14 15 15
11 12 14 11 11 12 13 14 14 14 14 12 12 12 10 9 8 9 9 9 9 9 9 9 8 7 7 7 7 7 8 9 10 11 11 12 13 14 15 16 17 17 18
13 13 13 13 13 14 15 14 14 13 12 12 11 10 10 9 7 8 10 9 9 9 10 10 10 10 10 10 10 10 11 12 11 11 11 11 14 14 15 16 18 19 20
16 16 15 14 14 15 16 15 14 13 11 11 10 9 11 9 9 10 11 11 11 10 11 14 12 13 14 16 17 15 9 9 11 14 13 12 14 16 17 19 21 21 21
17 18 18 16 15 16 17 15 14 13 11 11 11 11 13 12 12 13 14 17 16 17 15 15 14 11 15 13 12 13 14 15 16 16 19 17 15 16 16 16 16 15 16
19 19 19 18 17 17 17 15 13 12 12 12 10 9 9 10 11 13 16 19 22 20 20 20 16 15 13 13 14 17 17 19 21 23 22 17 13 14 11 11 12 13 13
19 19 21 19 19 19 17 16 15 14 13 12 11 10 12 17 17 15 15 16 16 14 15 14 14 14 14 16 19 20 23 24 22 18 15 10 9 9 10 10 11 12 12
Wind_Direction
165 150 171 167 161 148 132 115 92 81 77 81 81 81 85 82 78 68 61 64 65 58 59 62 52 54 51 40 90 155 185 198 189 187 205 181 192 177 150 351 10 0 9
171 172 179 181 162 155 139 112 94 87 84 86 85 84 84 82 75 68 67 65 70 69 64 67 59 49 59 65 51 79 95 153 213 209 182 178 179 172 177 279 36 27 79
181 183 181 179 174 171 143 131 114 99 96 92 90 92 89 81 72 71 71 70 72 76 73 70 72 66 68 66 68 76 91 105 112 177 185 185 167 150 141 32 357 46 48
186 190 192 193 183 173 163 151 129 112 102 95 92 90 89 85 78 76 76 77 79 77 75 75 74 72 70 61 68 67 73 81 114 146 169 168 156 168 164 52 50 54 52
191 207 200 199 184 179 175 170 159 129 106 96 93 93 86 81 84 84 77 78 77 76 74 72 71 68 68 74 73 74 67 79 89 102 122 119 102 82 60 38 38 34 26
183 207 201 196 199 194 188 198 176 154 137 115 104 107 109 102 91 89 92 88 89 87 84 79 75 72 68 66 65 67 82 89 92 92 85 83 73 45 22 25 25 8 6
189 202 209 197 205 209 204 195 197 181 171 157 142 131 129 117 103 95 97 101 95 88 82 78 72 70 68 60 62 67 76 83 90 86 88 83 71 54 12 15 355 326 323
203 200 215 206 207 212 215 206 205 204 199 181 169 154 149 146 122 106 104 103 102 99 93 84 75 67 65 72 66 64 67 75 83 82 85 79 70 54 57 347 347 353 355
207 208 221 223 210 229 249 218 213 214 206 195 183 178 171 162 147 128 117 111 114 108 101 96 87 72 73 74 75 75 73 70 70 64 55 48 36 22 18 28 296 302 291
198 210 216 216 236 250 255 231 222 209 197 188 197 196 190 179 172 165 135 147 138 121 110 106 93 92 88 80 84 85 92 99 96 58 40 29 23 25 23 47 29 338 305
213 209 224 229 240 249 243 232 224 208 201 196 204 195 193 190 198 200 191 177 155 152 148 123 110 103 98 100 95 108 151 117 39 53 32 23 25 17 12 27 34 25 349
229 221 223 217 237 252 247 234 221 215 209 206 196 189 189 186 201 212 214 210 206 203 196 193 150 122 106 84 63 60 69 73 69 66 6 347 350 345 346 350 358 10 343
231 222 220 233 243 237 228 219 216 211 200 208 195 195 203 198 205 211 207 209 215 204 198 183 150 126 90 55 51 59 64 64 72 64 18 347 349 330 6 342 330 334 339
227 232 236 239 235 226 208 197 204 205 208 208 200 200 210 213 227 216 215 199 199 191 185 171 154 132 141 183 43 39 53 72 82 49 0 342 345 344 346 341 339 328 329
235 239 241 237 219 201 188 187 198 212 196 215 215 206 203 212 226 218 207 193 192 174 164 156 152 152 190 155 29 63 64 52 38 14 355 345 343 346 342 343 340 338 328
234 220 206 209 206 196 191 187 183 202 196 203 208 214 224 226 224 211 193 184 166 162 154 174 181 181 181 164 124 90 75 63 48 31 21 10 1 354 342 345 331 334 334
220 215 208 195 194 195 198 205 214 189 206 210 211 214 220 237 255 198 184 176 175 162 159 195 194 192 184 164 138 125 110 67 54 20 19 13 7 357 351 345 343 338 332
226 219 195 191 187 192 192 193 195 199 196 206 212 225 226 223 204 189 185 177 178 181 190 198 197 195 189 181 174 154 86 2 346 351 350 353 352 350 347 343 340 335 330
219 208 194 186 184 182 181 180 182 181 181 183 193 194 190 187 183 183 180 160 192 197 194 194 197 199 198 200 199 198 215 298 310 326 324 325 326 331 330 328 325 322 319
210 199 186 190 191 177 177 176 176 170 169 168 159 166 165 161 164 172 173 180 188 193 198 203 203 200 210 214 220 233 281 298 302 309 308 311 314 316 313 312 310 310 308
214 206 176 182 175 174 169 165 162 159 159 157 158 161 159 147 170 178 181 189 187 195 200 203 216 231 231 237 240 254 272 282 288 290 295 295 294 296 297 302 302 302 300
205 201 190 187 184 177 170 168 166 167 165 165 167 171 166 153 184 191 195 202 206 209 214 221 229 241 247 245 252 256 267 271 276 276 285 292 293 292 297 295 294 296 296
199 204 196 192 192 188 182 183 181 185 185 189 191 202 209 208 213 218 219 217 216 224 235 240 238 233 247 263 271 273 262 257 265 281 290 292 295 296 290 290 293 292 292
199 205 197 202 198 195 194 195 199 203 205 211 213 215 223 227 229 231 228 230 242 256 261 261 251 236 253 257 266 269 274 280 283 287 293 293 292 291 289 291 292 292 294
201 207 208 207 207 206 208 204 211 214 215 214 215 216 219 224 230 225 236 244 245 247 249 255 246 242 245 254 264 275 283 286 288 290 291 287 287 290 294 293 295 294 298
206 217 216 204 206 214 200 220 220 214 220 208 213 225 246 252 253 254 253 256 241 226 233 230 238 251 264 269 276 285 289 290 289 287 286 283 285 288 285 295 295 296 298
Height
1548 1550 1550 1552 1552 1552 1552 1551 1548 1547 1546 1546 1545 1544 1544 1544 1544 1543 1542 1540 1538 1537 1537 1536 1535 1534 1534 1535 1536 1536 1537 1538 1540 1543 1544 1545 1547 1547 1548 1549 1548 1548 1548
1546 1549 1551 1553 1554 1554 1552 1551 1550 1549 1548 1548 1546 1546 1546 1546 1545 1545 1543 1541 1539 1539 1538 1537 1537 1537 1536 1536 1536 1536 1537 1538 1539 1540 1542 1543 1545 1546 1548 1548 1548 1548 1548
1545 1550 1553 1554 1554 1555 1554 1553 1551 1551 1550 1550 1548 1548 1548 1548 1547 1546 1545 1543 1542 1541 1540 1539 1538 1538 1537 1537 1537 1537 1537 1538 1538 1540 1541 1543 1545 1546 1547 1548 1547 1547 1547
1545 1549 1553 1555 1555 1555 1555 1555 1554 1552 1552 1551 1550 1550 1550 1549 1549 1548 1547 1546 1545 1545 1544 1542 1541 1541 1540 1540 1538 1539 1538 1539 1539 1541 1542 1543 1545 1546 1547 1548 1548 1547 1547
1543 1549 1550 1552 1553 1554 1555 1556 1555 1554 1552 1551 1551 1552 1551 1552 1550 1549 1549 1549 1548 1547 1547 1546 1545 1544 1543 1542 1542 1541 1542 1542 1542 1543 1544 1545 1546 1547 1547 1548 1548 1548 1548
1542 1547 1548 1550 1552 1552 1553 1553 1555 1553 1552 1552 1551 1552 1552 1552 1550 1550 1550 1551 1551 1550 1549 1549 1548 1548 1547 1545 1545 1544 1544 1545 1546 1546 1546 1547 1548 1548 1548 1548 1548 1548 1548
1542 1545 1547 1547 1550 1551 1552 1552 1554 1552 1550 1550 1551 1552 1552 1552 1551 1550 1550 1551 1551 1551 1551 1551 1552 1550 1549 1549 1548 1547 1547 1547 1547 1548 1549 1549 1549 1549 1549 1548 1548 1548 1548
1543 1544 1545 1546 1548 1549 1549 1550 1551 1551 1550 1550 1551 1552 1552 1551 1551 1551 1551 1552 1552 1552 1552 1552 1552 1551 1551 1551 1550 1550 1549 1549 1549 1549 1549 1549 1549 1549 1549 1549 1548 1548 1547
1541 1542 1543 1543 1545 1545 1546 1547 1549 1550 1550 1550 1551 1552 1552 1551 1551 1552 1552 1553 1553 1553 1553 1553 1552 1553 1552 1552 1552 1552 1552 1551 1551 1551 1550 1550 1549 1548 1548 1549 1550 1549 1547
1534 1536 1538 1540 1541 1542 1542 1544 1545 1549 1550 1551 1551 1552 1552 1552 1552 1552 1552 1555 1553 1554 1554 1554 1553 1553 1553 1554 1554 1554 1554 1554 1554 1553 1551 1550 1550 1548 1547 1547 1549 1548 1547
1531 1532 1534 1535 1536 1537 1539 1540 1543 1546 1547 1549 1549 1551 1551 1552 1552 1552 1552 1553 1554 1554 1555 1555 1555 1554 1554 1554 1554 1554 1554 1553 1553 1554 1554 1554 1553 1552 1551 1548 1546 1548 1547
1527 1530 1530 1530 1532 1533 1535 1536 1539 1542 1544 1547 1548 1550 1549 1550 1551 1551 1552 1552 1552 1553 1554 1555 1555 1555 1555 1555 1554 1554 1553 1552 1554 1555 1555 1554 1553 1552 1551 1549 1547 1546 1546
1525 1526 1526 1527 1528 1529 1530 1531 1535 1538 1541 1543 1545 1547 1548 1548 1549 1549 1549 1550 1550 1551 1552 1554 1555 1555 1556 1556 1555 1554 1554 1555 1555 1555 1554 1554 1552 1550 1548 1549 1548 1545 1543
1523 1523 1524 1524 1524 1526 1526 1529 1532 1534 1538 1541 1542 1545 1546 1547 1548 1548 1548 1547 1548 1549 1551 1553 1555 1555 1557 1557 1556 1556 1556 1555 1554 1554 1554 1553 1552 1550 1549 1548 1547 1546 1544
1520 1520 1520 1521 1521 1523 1524 1526 1529 1532 1535 1537 1540 1541 1544 1544 1545 1545 1546 1546 1547 1548 1551 1553 1555 1556 1558 1558 1557 1556 1556 1555 1555 1554 1553 1552 1551 1549 1548 1547 1546 1545 1543
1518 1519 1519 1519 1520 1522 1523 1524 1528 1531 1533 1534 1537 1539 1540 1541 1541 1542 1543 1544 1546 1548 1551 1555 1556 1557 1557 1557 1556 1555 1555 1554 1554 1553 1552 1551 1549 1548 1547 1546 1545 1544 1542
1518 1517 1516 1517 1519 1521 1522 1524 1525 1527 1530 1532 1534 1536 1538 1538 1539 1540 1541 1543 1545 1547 1551 1554 1555 1556 1556 1556 1555 1554 1554 1554 1552 1553 1552 1551 1549 1548 1547 1545 1544 1543 1541
1515 1513 1514 1515 1518 1520 1521 1522 1523 1526 1528 1529 1531 1533 1534 1536 1537 1538 1539 1542 1545 1547 1550 1552 1554 1555 1555 1555 1555 1554 1553 1553 1553 1552 1551 1550 1549 1548 1546 1545 1544 1542 1541
1512 1512 1512 1514 1517 1519 1520 1522 1525 1526 1528 1530 1529 1530 1531 1533 1534 1536 1538 1541 1546 1547 1549 1551 1552 1553 1553 1553 1553 1552 1552 1552 1551 1551 1550 1549 1549 1547 1546 1544 1542 1540 1539
1511 1512 1514 1516 1515 1517 1518 1520 1523 1524 1526 1529 1530 1531 1530 1532 1534 1536 1538 1541 1544 1546 1547 1549 1550 1551 1551 1551 1551 1551 1551 1550 1550 1549 1548 1548 1547 1545 1543 1542 1540 1538 1536
1511 1509 1511 1514 1514 1515 1518 1519 1521 1524 1526 1528 1529 1530 1530 1533 1536 1537 1539 1540 1542 1544 1545 1546 1547 1548 1548 1548 1548 1548 1547 1547 1547 1546 1546 1545 1544 1542 1540 1538 1536 1534 1531
1508 1509 1510 1512 1513 1515 1517 1519 1521 1524 1525 1527 1529 1528 1530 1531 1535 1537 1538 1539 1540 1542 1543 1543 1544 1544 1545 1544 1544 1544 1544 1543 1542 1542 1540 1539 1538 1537 1535 1534 1532 1529 1527
1505 1507 1508 1510 1512 1514 1516 1518 1520 1522 1523 1525 1526 1527 1528 1530 1533 1535 1536 1537 1538 1539 1539 1538 1539 1540 1538 1537 1537 1537 1538 1537 1535 1534 1533 1533 1533 1532 1530 1528 1527 1524 1522
1500 1503 1505 1507 1509 1512 1514 1516 1518 1519 1520 1521 1523 1525 1526 1526 1529 1531 1531 1531 1532 1533 1533 1533 1533 1533 1532 1532 1531 1531 1530 1530 1529 1528 1527 1527 1526 1525 1524 1522 1520 1518 1516
1496 1499 1502 1504 1506 1509 1510 1513 1515 1516 1518 1519 1520 1522 1523 1524 1525 1526 1524 1525 1526 1526 1527 1527 1527 1527 1527 1526 1525 1525 1524 1524 1523 1522 1521 1520 1518 1516 1516 1515 1514 1513 1511
1493 1495 1497 1500 1502 1505 1508 1511 1512 1513 1514 1516 1516 1516 1518 1518 1519 1519 1520 1520 1521 1522 1521 1521 1522 1521 1521 1520 1520 1519 1518 1517 1515 1515 1514 1514 1513 1513 1511 1509 1509 1508 1507